[[{"header":{"parameterUnit":"m.s-1","parameterCategory":1,"la1":30.2991,"la2":30.254,"lo1":-89.0895,"lo2":-89.0444,"dy":0.0017,"dx":0.0017,"nx":28,"ny":28,"refTime":"2024-03-09T03:00:00:Z","depth":0,"parameterNumber":2,"parameterNumberName":"U-component_of_WINDS"},"data":[0,0,0,0,0,0,0,0,0,0,0,0,0,0,0,0,0,0,0,0,0,0,0,0,0,0,0,0,0,0,0,0,0,0,0,0,0,0,0,0,0,0,0,0,0,0,0,0,0,0,0,0,0,0,0,0,0,0,1.8371,1.837,0,1.8257,1.8256,1.8254,1.8171,1.8171,1.817,1.8169,1.8047,1.8044,1.8042,0,0,0,0,0,0,0,0,0,0,0,0,0,1.8513,1.851,1.8371,1.837,1.8368,1.8257,1.8256,1.8254,1.8172,1.8171,1.817,1.8169,1.8048,1.8045,1.8041,0,0,0,0,0,0,0,0,0,0,0,0,0,1.843,1.851,1.8371,1.8314,1.8307,1.8258,1.8256,1.8254,1.8172,1.8171,1.817,1.8169,1.8049,1.8045,1.8041,1.8037,0,0,1.8029,1.8027,0,0,0,0,0,0,0,0,1.8435,1.8425,1.8324,1.8318,1.8311,1.8228,1.826,1.8181,1.8172,1.8223,1.8169,1.8168,1.8107,1.8099,1.8079,1.8031,1.8026,1.8029,1.8026,1.8024,1.8023,0,0,0,0,0,0,0,1.8441,1.8429,1.8326,1.8322,1.8314,1.8292,1.8279,1.8245,1.8172,1.8219,1.8212,1.82,1.8103,1.8083,1.8076,1.8024,1.8029,1.8025,1.8023,1.8021,1.7969,1.797,0,0,0,0,0,0,1.8456,1.8435,1.8329,1.8322,1.8372,1.8291,1.8276,1.8255,1.8172,1.8159,1.8201,1.8197,1.809,1.808,1.8071,1.8062,1.8025,1.8021,1.8019,1.7968,1.7969,1.797,0,0,0,0,0,0,1.8459,1.8447,1.8334,1.8377,1.8361,1.8289,1.8266,1.8253,1.8233,1.8159,1.8145,1.8194,1.8089,1.8077,1.8047,1.8057,1.8019,1.8015,1.7967,1.7968,1.797,1.8044,0,0,0,0,0,0,1.8464,1.8449,1.8448,1.8377,1.8359,1.8313,1.8267,1.8252,1.8227,1.822,1.8149,1.8136,1.8087,1.8053,1.8043,1.8051,1.8012,1.7966,1.7968,1.7969,1.804,1.8048,1.8054,0,0,0,0,0,1.8469,1.8472,1.8448,1.8436,1.8356,1.8314,1.8303,1.8249,1.8228,1.8226,1.8179,1.8138,1.8058,1.8051,1.8039,1.8045,1.7965,1.7967,1.7969,1.8037,1.8047,1.8054,0,0,0,0,0,0,1.8542,1.8461,1.8434,1.8414,1.8372,1.83,1.8295,1.826,1.8221,1.8215,1.8148,1.8132,1.811,1.8074,1.8069,1.8038,1.8006,1.8006,1.8062,1.807,1.8077,1.8086,1.8009,0,0,0,0,0,1.8557,1.8531,1.8461,1.845,1.843,1.8367,1.8346,1.8309,1.8261,1.8242,1.8193,1.8147,1.8111,1.8088,1.8051,1.8035,1.8019,1.8034,1.8041,1.8047,1.8047,1.8037,1.8043,1.7978,1.7978,1.7978,0,0,1.8585,1.8537,1.8525,1.8464,1.8426,1.84,1.8352,1.8326,1.8306,1.8237,1.8207,1.817,1.8114,1.8092,1.8079,1.8061,1.8062,1.805,1.8055,1.8052,1.804,1.8046,1.8052,1.7979,1.7979,1.7979,0,0,1.8623,1.8585,1.8573,1.8537,1.8482,1.844,1.8438,1.8372,1.8345,1.8314,1.8263,1.8237,1.8176,1.8139,1.8113,1.814,1.8101,1.813,1.8166,1.8157,1.8162,1.8166,1.8176,1.8181,1.813,1.8131,1.8131,0,1.8665,1.8625,1.857,1.8548,1.8523,1.8463,1.8449,1.8416,1.8352,1.8335,1.8316,1.8241,1.8199,1.8168,1.8175,1.8155,1.8149,1.8137,1.8166,1.817,1.8173,1.8182,1.8186,1.8134,1.8134,1.8134,1.8133,0,1.8679,1.8653,1.8649,1.8591,1.8565,1.8547,1.8489,1.8469,1.8434,1.8394,1.8364,1.8312,1.8264,1.8254,1.8218,1.8218,1.8209,1.8179,1.8145,1.8184,1.8191,1.8194,1.814,1.8138,1.8137,1.8136,0,0,1.8759,1.8673,1.8672,1.8646,1.8583,1.856,1.854,1.8496,1.848,1.8438,1.8419,1.8371,1.8344,1.8313,1.8273,1.8265,1.8292,1.8236,1.8234,1.8249,1.8289,1.8312,1.8317,1.8266,1.8267,1.8267,1.8294,0,1.8787,1.875,1.8701,1.8679,1.8654,1.8598,1.858,1.8539,1.8502,1.8474,1.8431,1.8399,1.8365,1.8347,1.8337,1.8291,1.8299,1.8288,1.8247,1.8246,1.8263,1.8321,1.8345,1.8373,1.8297,1.8297,1.8297,0,1.8815,1.878,1.8757,1.8697,1.8685,1.867,1.8627,1.8601,1.8553,1.8526,1.8495,1.8452,1.8427,1.8398,1.8362,1.8356,1.8337,1.8312,1.8311,1.8305,1.8274,1.8317,1.838,1.8385,1.8301,1.8301,1.8301,0,1.8877,1.8822,1.8802,1.8781,1.8711,1.8702,1.8672,1.8623,1.8601,1.8562,1.8547,1.8505,1.8482,1.845,1.8397,1.8381,1.8368,1.8334,1.8344,1.8346,1.8343,1.8344,1.8405,1.8331,1.8331,1.8331,1.8331,0,1.8914,1.8902,1.8829,1.8817,1.8802,1.8745,1.8732,1.8696,1.8654,1.8633,1.8581,1.8562,1.8493,1.8466,1.8424,1.8402,1.8391,1.8369,1.8358,1.8373,1.8376,1.8359,1.8356,1.8332,1.8332,1.8331,1.8331,0,1.8979,1.893,1.8904,1.8842,1.8825,1.8818,1.8763,1.8748,1.8709,1.8683,1.8673,1.8611,1.8576,1.8521,1.8469,1.8441,1.8426,1.8408,1.8443,1.8437,1.8451,1.8451,1.8503,1.8507,1.8431,1.8431,1.8432,0,1.9006,1.8997,1.8934,1.8918,1.889,1.8864,1.8841,1.8785,1.8764,1.871,1.8702,1.8664,1.8631,1.8578,1.8527,1.8487,1.8468,1.8489,1.8461,1.8478,1.8469,1.847,1.8469,1.8495,1.8496,1.8497,1.8498,0,1.906,1.9037,1.9007,1.8971,1.8946,1.8913,1.8878,1.8867,1.8803,1.8781,1.8747,1.8721,1.867,1.8633,1.8587,1.8554,1.8516,1.8508,1.8508,1.8524,1.8545,1.8535,1.8461,1.8506,1.8505,1.8505,1.8504,1.8504,1.9107,1.9096,1.9052,1.9021,1.8989,1.8958,1.8942,1.8902,1.8873,1.8829,1.8798,1.8766,1.8719,1.8654,1.8623,1.8597,1.8579,1.858,1.858,1.8581,1.8587,1.855,1.8588,1.8588,1.8587,1.8587,1.8587,0,1.9158,1.9127,1.91,1.9054,1.903,1.8999,1.8958,1.894,1.8914,1.8874,1.8844,1.8805,1.877,1.8717,1.8677,1.8666,1.8647,1.8658,1.8658,1.8651,1.8605,1.8609,1.8674,1.8674,1.8674,1.8674,1.8674,1.8674,1.9182,1.9163,1.9135,1.91,1.9068,1.9039,1.9019,1.899,1.8959,1.8919,1.889,1.8857,1.8812,1.877,1.8735,1.8721,1.8709,1.8725,1.8705,1.8662,1.8654,1.8646,1.865,1.8722,1.8723,1.8753,1.8753,1.8754]},{"header":{"parameterUnit":"m.s-1","parameterCategory":1,"la1":30.2991,"la2":30.254,"lo1":-89.0895,"lo2":-89.0444,"dy":0.0017,"dx":0.0017,"nx":28,"ny":28,"refTime":"2024-03-09T03:00:00:Z","depth":0,"parameterNumber":3,"parameterNumberName":"V-component_of_WINDS"},"data":[0,0,0,0,0,0,0,0,0,0,0,0,0,0,0,0,0,0,0,0,0,0,0,0,0,0,0,0,0,0,0,0,0,0,0,0,0,0,0,0,0,0,0,0,0,0,0,0,0,0,0,0,0,0,0,0,0,0,4.3074,4.3076,0,4.3217,4.3219,4.3221,4.3055,4.3048,4.3042,4.3036,4.319,4.32,4.321,0,0,0,0,0,0,0,0,0,0,0,0,0,4.2663,4.2671,4.3074,4.3076,4.3078,4.3217,4.3219,4.3221,4.3056,4.3048,4.3041,4.3034,4.3187,4.3199,4.3211,0,0,0,0,0,0,0,0,0,0,0,0,0,4.2828,4.2674,4.3074,4.3012,4.3008,4.3217,4.3219,4.3222,4.3057,4.3048,4.3039,4.303,4.3183,4.3198,4.3212,4.3491,0,0,4.3258,4.3264,0,0,0,0,0,0,0,0,4.2819,4.2843,4.3019,4.3017,4.3012,4.3108,4.313,4.3312,4.306,4.3039,4.3036,4.3025,4.3171,4.3186,4.3234,4.3499,4.3505,4.3259,4.3268,4.3275,4.3279,0,0,0,0,0,0,0,4.2807,4.2836,4.3131,4.3022,4.3018,4.2979,4.2992,4.3164,4.3156,4.304,4.3028,4.3047,4.3168,4.322,4.3236,4.3508,4.3259,4.3272,4.3281,4.3287,4.4007,4.4016,0,0,0,0,0,0,4.2802,4.2828,4.3126,4.3135,4.289,4.2994,4.3008,4.3087,4.3154,4.3155,4.3055,4.3039,4.3199,4.3219,4.3241,4.3572,4.3274,4.3288,4.3297,4.3997,4.4009,4.402,0,0,0,0,0,0,4.2794,4.2831,4.3121,4.2978,4.3012,4.3011,4.3101,4.3095,4.3147,4.3165,4.3163,4.311,4.3193,4.322,4.343,4.3575,4.3295,4.3309,4.3985,4.4,4.4014,4.4237,0,0,0,0,0,0,4.2783,4.2829,4.2934,4.2982,4.302,4.3306,4.311,4.3105,4.3173,4.3153,4.3216,4.3218,4.3188,4.3408,4.3445,4.3591,4.332,4.3972,4.3992,4.401,4.4217,4.4258,4.4293,0,0,0,0,0,4.2769,4.2993,4.294,4.2977,4.3152,4.3315,4.3337,4.3296,4.3185,4.3291,4.3302,4.3216,4.3553,4.3431,4.347,4.3624,4.3962,4.3986,4.4008,4.42,4.425,4.4292,0,0,0,0,0,0,4.2965,4.2998,4.294,4.3185,4.3248,4.3287,4.342,4.3351,4.3449,4.3427,4.3373,4.3389,4.3611,4.3637,4.3502,4.3896,4.3739,4.3771,4.3872,4.392,4.3957,4.3948,4.3333,0,0,0,0,0,4.3036,4.3165,4.3187,4.3401,4.3435,4.3423,4.3492,4.3454,4.3518,4.3545,4.3571,4.3638,4.3759,4.384,4.3952,4.4218,4.423,4.4342,4.4381,4.4412,4.4442,4.4583,4.4634,4.4095,4.4095,4.4095,0,0,4.3187,4.322,4.3305,4.3442,4.3486,4.3621,4.3446,4.3597,4.3698,4.3569,4.3768,4.3789,4.386,4.4099,4.4205,4.4128,4.4592,4.4441,4.4466,4.4479,4.4612,4.4663,4.4709,4.4111,4.4108,4.4106,0,0,4.3529,4.3567,4.375,4.3796,4.3864,4.3853,4.3897,4.3946,4.3954,4.4152,4.4057,4.4176,4.4385,4.4439,4.4495,4.4854,4.4778,4.4892,4.5094,4.5233,4.5275,4.5313,4.5442,4.5489,4.492,4.4921,4.4921,0,4.3709,4.3907,4.3853,4.401,4.4074,4.3959,4.4144,4.4193,4.4295,4.4342,4.4252,4.4511,4.4551,4.48,4.4888,4.4936,4.4985,4.4887,4.5273,4.531,4.5344,4.5467,4.5516,4.4934,4.4933,4.4932,4.493,0,4.4124,4.4263,4.4402,4.4501,4.4579,4.475,4.4724,4.481,4.4764,4.4763,4.4966,4.5008,4.5127,4.5182,4.5141,4.5426,4.5376,4.5281,4.5123,4.541,4.5524,4.5571,4.4954,4.4949,4.4945,4.4942,0,0,4.4599,4.4662,4.4715,4.4758,4.4822,4.493,4.5094,4.5207,4.5283,4.5356,4.5494,4.5671,4.5583,4.5645,4.5608,4.573,4.6012,4.5619,4.562,4.5692,4.633,4.6403,4.6458,4.596,4.5969,4.5976,4.6324,0,4.4944,4.5228,4.5183,4.5459,4.5587,4.5477,4.5621,4.5677,4.568,4.5789,4.5792,4.5919,4.5792,4.5829,4.5944,4.5954,4.614,4.5927,4.609,4.6097,4.6079,4.6517,4.6596,4.6922,4.6368,4.6376,4.6381,0,4.5385,4.5472,4.576,4.5802,4.5854,4.5984,4.6083,4.6188,4.6249,4.6242,4.631,4.625,4.6415,4.6251,4.6479,4.6335,4.6398,4.6413,4.6424,4.6441,4.6259,4.6548,4.7026,4.7076,4.6451,4.6445,4.644,0,4.5705,4.5893,4.6089,4.6129,4.6184,4.6277,4.6305,4.6356,4.6426,4.6512,4.6557,4.6662,4.6721,4.6804,4.6774,4.6657,4.7008,4.6841,4.7008,4.7009,4.709,4.7086,4.7587,4.7127,4.7127,4.7126,4.7125,0,4.6097,4.6278,4.6233,4.6355,4.6554,4.65,4.6699,4.6713,4.6759,4.6881,4.6792,4.691,4.6861,4.6975,4.6952,4.7144,4.7171,4.7171,4.7163,4.7181,4.7181,4.7224,4.7201,4.7139,4.7136,4.7133,4.7131,0,4.649,4.6467,4.6674,4.6707,4.6719,4.6865,4.6893,4.7007,4.7,4.7156,4.719,4.7181,4.731,4.7287,4.7431,4.7414,4.7655,4.7619,4.7635,4.7627,4.7796,4.7781,4.8344,4.8415,4.7908,4.7912,4.7917,0,4.6742,4.6878,4.6925,4.6999,4.7033,4.7154,4.7224,4.7175,4.7252,4.7329,4.7434,4.7554,4.7649,4.786,4.7867,4.7976,4.7942,4.8132,4.7959,4.7971,4.7947,4.794,4.7954,4.8168,4.8174,4.8178,4.8182,0,4.7194,4.7175,4.7278,4.7378,4.7463,4.7539,4.7607,4.7674,4.763,4.7721,4.785,4.7923,4.8067,4.8189,4.8289,4.8317,4.8245,4.8236,4.828,4.8301,4.8305,4.8306,4.7731,4.8224,4.822,4.8217,4.8215,4.8213,4.7526,4.7641,4.7691,4.7809,4.7853,4.7918,4.8026,4.8031,4.8138,4.8251,4.8215,4.8363,4.8417,4.8544,4.8584,4.8699,4.8628,4.8693,4.871,4.8727,4.8748,4.8284,4.8717,4.8715,4.8714,4.8713,4.8712,0,4.7974,4.7999,4.8108,4.8204,4.8296,4.8214,4.8285,4.8368,4.8498,4.8554,4.8647,4.8796,4.8912,4.8926,4.9036,4.9125,4.9094,4.9156,4.915,4.9158,4.8804,4.8755,4.9179,4.9179,4.9179,4.9179,4.9178,4.9178,4.8218,4.8409,4.8396,4.8608,4.8632,4.8774,4.8821,4.888,4.8924,4.9093,4.9188,4.9195,4.9235,4.9346,4.9448,4.9449,4.9495,4.957,4.9559,4.9229,4.9183,4.9138,4.9092,4.958,4.958,4.9902,4.9905,4.9908]}]]